Weather History for Evansville, IN

Change the Weather History Date:

Saturday, February 9, 2013

  Actual Average Record
Temperature  
Mean Temperature 37 °F 35 °F  
Max Temperature 46 °F 44 °F 72 °F (1965)
Min Temperature 27 °F 26 °F -15 °F (1899)
Degree Days  
Heating Degree Days 28 30  
Month to date heating degree days 275 278  
Since 1 July heating degree days 2840 3057  
Cooling Degree Days 0 0  
Month to date cooling degree days 0 0  
Year to date cooling degree days 0 0  
Moisture  
Dew Point 26 °F    
Average Humidity 71    
Maximum Humidity 92    
Minimum Humidity 49    
Precipitation  
Precipitation 0.00 in 0.12 in 2.46 in (1965)
Month to date precipitation 0.32 1.06  
Year to date precipitation 7.09 4.16  
Snow  
Snow 0.00 in 0.10 in 1.50 in (2010)
Month to date snowfall 0.8 1.3  
Since 1 July snowfall 11.8 8.2  
Snow Depth 0.00 in    
Sea Level Pressure  
Sea Level Pressure 30.31 in    
Wind  
Wind Speed 4 mph (East)    
Max Wind Speed 10 mph    
Max Gust Speed 16 mph    
Visibility 10 miles    
Events      
T = Trace of Precipitation, MM = Missing Value Source: NWS Daily Summary

Daily Weather History Graph

Daily Weather History Graph

Search for Another Location

Airport:

Trip Planner

Search our weather history database for the weather conditions in past years. The results will help you decide how hot, cold, wet, or windy it might be!

Date:

Astronomy

Feb. 09, 2013 Rise Set
Actual Time 6:46 AM CST 5:22 PM CST
Civil Twilight 6:19 AM CST 5:49 PM CST
Nautical Twilight 5:48 AM CST 6:20 PM CST
Astronomical Twilight 5:17 AM CST 6:51 PM CST
Moon 5:58 AM CST (2/9) 5:04 PM CST (2/9)
Length of Visible Light 11h 30m
Length of Day
10h 35m
Waning Crescent, 0% of the Moon is Illuminated
Feb 9
Waning Crescent
Feb 10
New
Feb 17
First Quarter
Feb 25
Full
Mar 4
Last Quarter

Hourly Weather History & Observations

Time (CST) Temp. Windchill Dew Point Humidity Pressure Visibility Wind Dir Wind Speed Gust Speed Precip Events Conditions
12:54 AM 34.0 °F 31.0 °F 25.0 °F 70% 30.38 in 10.0 mi East 3.5 mph - N/A   Overcast
1:54 AM 33.1 °F 30.0 °F 25.0 °F 72% 30.41 in 10.0 mi East 3.5 mph - N/A   Overcast
2:46 AM 32.0 °F - 24.8 °F 75% 30.36 in 10.0 mi Calm Calm - N/A   Scattered Clouds
2:54 AM 32.0 °F - 24.1 °F 73% 30.38 in 10.0 mi Calm Calm - N/A   Partly Cloudy
3:54 AM 28.9 °F - 23.0 °F 78% 30.39 in 10.0 mi Calm Calm - N/A   Clear
4:45 AM 28.4 °F 24.6 °F 24.8 °F 86% 30.38 in 10.0 mi NE 3.5 mph - N/A   Mostly Cloudy
4:54 AM 27.0 °F 23.0 °F 24.1 °F 89% 30.40 in 9.0 mi NE 3.5 mph - N/A   Mostly Cloudy
5:54 AM 28.9 °F - 24.1 °F 82% 30.42 in 10.0 mi Calm Calm - N/A   Overcast
6:54 AM 30.0 °F 26.5 °F 25.0 °F 82% 30.41 in 9.0 mi East 3.5 mph - N/A   Overcast
7:54 AM 30.9 °F 25.2 °F 25.0 °F 79% 30.41 in 9.0 mi East 5.8 mph - N/A   Overcast
8:54 AM 32.0 °F 26.4 °F 24.1 °F 73% 30.42 in 10.0 mi East 5.8 mph - N/A   Overcast
9:54 AM 34.0 °F 28.8 °F 25.0 °F 70% 30.42 in 10.0 mi ESE 5.8 mph - N/A   Overcast
10:54 AM 37.0 °F 30.4 °F 27.0 °F 67% 30.40 in 10.0 mi SE 9.2 mph - N/A   Mostly Cloudy
11:06 AM 35.6 °F 29.9 °F 26.6 °F 70% 30.39 in 10.0 mi SE 6.9 mph - N/A   Scattered Clouds
11:54 AM 39.0 °F 35.7 °F 28.0 °F 65% 30.36 in 10.0 mi SSE 4.6 mph - N/A   Clear
12:54 PM 42.1 °F 39.2 °F 28.9 °F 60% 30.32 in 10.0 mi Variable 4.6 mph - N/A   Clear
1:54 PM 44.1 °F 40.8 °F 28.0 °F 53% 30.29 in 10.0 mi ESE 5.8 mph - N/A   Clear
2:54 PM 46.0 °F 42.5 °F 28.9 °F 51% 30.27 in 10.0 mi ESE 6.9 mph - N/A   Clear
3:54 PM 45.0 °F 41.8 °F 28.0 °F 52% 30.24 in 10.0 mi ESE 5.8 mph - N/A   Clear
4:54 PM 45.0 °F - 28.0 °F 52% 30.24 in 10.0 mi Calm Calm - N/A   Clear
5:54 PM 43.0 °F 41.3 °F 28.0 °F 56% 30.21 in 10.0 mi East 3.5 mph - N/A   Clear
6:54 PM 41.0 °F 38.0 °F 28.0 °F 60% 30.21 in 10.0 mi ENE 4.6 mph - N/A   Clear
7:54 PM 41.0 °F 39.0 °F 27.0 °F 57% 30.19 in 10.0 mi East 3.5 mph - N/A   Clear
8:54 PM 41.0 °F 38.0 °F 27.0 °F 57% 30.18 in 10.0 mi East 4.6 mph - N/A   Clear
9:54 PM 42.1 °F 37.7 °F 28.0 °F 58% 30.15 in 10.0 mi East 6.9 mph - N/A   Clear
10:54 PM 42.1 °F 38.4 °F 28.0 °F 58% 30.14 in 10.0 mi East 5.8 mph - N/A   Clear
11:54 PM 42.1 °F - 28.0 °F 58% 30.14 in 10.0 mi Calm Calm - N/A   Overcast